Back to catalog

FENGYUN 1C DEB

AlivePO
NORAD 33698·DEBRIS·🇨🇳 China

Launched May 10, 1999 from Taiyuan Satellite Launch Center

Loading…

Next Passes (next 24 hours)

TLE

FreshSource: Space-Track

Epoch: Sep 12, 2026, 18:10 UTC

1 33698U 99025DGK 26255.75746679  .00000631  00000-0  13831-3 0  9994
2 33698  99.6459 263.1236 0137222 124.3602 237.0661 14.56470895996245

Track FENGYUN 1C DEB in real time with AllMySat

Download on the App Store